Date String (YYYY-MM-DD hh:mm:ss) UTC,Instrument flags,Ambient pressure (hPa),Sample flow (lpm),Bypass flow (lpm),Sample temperature (°C),Ambient temperature (°C),ASC tube jacket temperature (°C),LED temperature (°C),Box temperature (°C),Sample RH (%),Span deviation,Mass concentration (μg/m³),Mass concentration (μg/m³),Mass concentration (μg/m³)
DateTimeUTC,F1_M11,P_M11,Q1_M11,Q2_M11,T1_M11,T2_M11,T3_M11,T4_M11,T5_M11,U1_M11,ZSPAN_M11,X0_M11,X2_M11,X1_M11
2022-06-21 10:00:00,,0832.8,5.00,0.00,28.3,27.2,00.0,37.3,30.0,16.0,0000.0,0012.13,0003.79,0001.47
2022-06-21 10:01:00,,0832.9,4.99,0.00,28.3,27.2,00.0,37.3,30.0,16.0,0000.0,0012.15,0003.77,0001.48
2022-06-21 10:02:00,,0832.8,5.01,0.00,28.3,27.2,00.0,37.3,30.0,16.0,0000.0,0012.10,0003.84,0001.51
2022-06-21 10:03:00,,0832.8,4.99,0.00,28.3,27.2,00.0,37.3,30.0,16.1,0000.0,0012.25,0003.91,0001.53
2022-06-21 10:04:00,,0832.9,5.00,0.00,28.3,27.2,00.0,37.3,30.0,16.1,0000.0,0011.53,0003.93,0001.55
2022-06-21 10:05:00,,0832.8,5.01,0.00,28.3,27.2,00.0,37.3,30.0,16.1,0000.0,0011.26,0003.96,0001.58
2022-06-21 10:06:00,,0832.8,4.99,0.00,28.3,27.2,00.0,37.2,30.0,16.2,0000.0,0011.55,0004.05,0001.62
2022-06-21 10:07:00,,0832.9,4.99,0.00,28.3,27.2,00.0,37.2,30.0,16.2,0000.0,0011.48,0004.05,0001.62
2022-06-21 10:08:00,,0832.9,5.01,0.00,28.2,27.2,00.0,37.2,30.0,16.2,0000.0,0011.59,0004.06,0001.62
2022-06-21 10:09:00,,0832.9,5.00,0.00,28.2,27.1,00.0,37.2,30.0,16.2,0000.0,0011.74,0004.06,0001.63
2022-06-21 10:10:00,,0832.8,4.99,0.00,28.2,27.1,00.0,37.2,30.0,16.2,0000.0,0011.80,0004.08,0001.62
2022-06-21 10:11:00,,0832.8,5.01,0.00,28.2,27.1,00.0,37.2,30.0,16.2,0000.0,0011.29,0004.14,0001.63
2022-06-21 10:12:00,,0832.9,5.00,0.00,28.2,27.1,00.0,37.2,30.0,16.2,0000.0,0010.97,0004.12,0001.64
2022-06-21 10:13:00,,0832.9,4.99,0.00,28.2,27.1,00.0,37.2,30.0,16.2,0000.0,0010.59,0004.03,0001.62
2022-06-21 10:14:00,,0832.9,5.01,0.00,28.2,27.1,00.0,37.2,30.0,16.2,0000.0,0010.64,0004.03,0001.62
2022-06-21 10:15:00,,0832.9,4.99,0.00,28.2,27.1,00.0,37.2,29.9,16.1,0000.0,0010.62,0004.05,0001.62
2022-06-21 10:16:00,,0832.8,4.99,0.00,28.2,27.1,00.0,37.2,29.9,16.1,0000.0,0010.30,0004.02,0001.62
2022-06-21 10:17:00,,0832.8,5.01,0.00,28.2,27.1,00.0,37.2,29.9,16.1,0000.0,0009.69,0003.95,0001.61
2022-06-21 10:18:00,,0832.8,5.00,0.00,28.2,27.1,00.0,37.2,29.9,16.1,0000.0,0009.55,0003.93,0001.63
2022-06-21 10:19:00,,0832.8,5.01,0.00,28.2,27.1,00.0,37.2,29.9,16.0,0000.0,0009.44,0003.88,0001.63
2022-06-21 10:20:00,,0832.8,4.99,0.00,28.2,27.1,00.0,37.1,29.9,16.0,0000.0,0009.36,0003.90,0001.65
2022-06-21 10:21:00,,0832.9,5.00,0.00,28.2,27.1,00.0,37.1,29.9,16.0,0000.0,0009.31,0003.90,0001.66
2022-06-21 10:22:00,,0832.9,5.00,0.00,28.2,27.1,00.0,37.1,29.9,16.0,0000.0,0009.72,0003.90,0001.67
2022-06-21 10:23:00,,0832.8,4.98,0.00,28.2,27.1,00.0,37.1,29.9,16.0,0000.0,0010.33,0003.91,0001.68
2022-06-21 10:24:00,,0832.8,5.01,0.00,28.2,27.1,00.0,37.1,29.9,16.0,0000.0,0010.46,0003.96,0001.70
2022-06-21 10:25:00,,0832.9,4.99,0.00,28.2,27.1,00.0,37.1,29.9,16.0,0000.0,0010.39,0003.95,0001.71
2022-06-21 10:26:00,,0832.8,4.99,0.00,28.2,27.1,00.0,37.1,29.9,16.0,0000.0,0010.73,0003.89,0001.72
2022-06-21 10:27:00,,0832.9,5.00,0.00,28.2,27.1,00.0,37.1,29.9,16.0,0000.0,0011.01,0003.92,0001.74
2022-06-21 10:28:00,,0832.8,5.01,0.00,28.2,27.1,00.0,37.1,29.9,16.0,0000.0,0011.20,0003.91,0001.75
2022-06-21 10:29:00,,0832.8,4.99,0.00,28.2,27.1,00.0,37.1,30.0,16.0,0000.0,0011.15,0003.88,0001.73
2022-06-21 10:30:00,,0832.8,4.99,0.00,28.2,27.2,00.0,37.1,30.0,15.9,0000.0,0011.25,0003.91,0001.73
2022-06-21 10:31:00,,0832.9,5.00,0.00,28.2,27.2,00.0,37.1,30.0,15.9,0000.0,0011.28,0003.87,0001.73
2022-06-21 10:32:00,,0832.8,4.99,0.00,28.2,27.2,00.0,37.1,30.0,15.9,0000.0,0011.34,0003.87,0001.72
2022-06-21 10:33:00,,0832.8,5.01,0.00,28.2,27.2,00.0,37.1,30.0,15.9,0000.0,0010.97,0003.84,0001.71
2022-06-21 10:34:00,,0832.8,4.99,0.00,28.2,27.2,00.0,37.1,30.0,15.9,0000.0,0010.53,0003.77,0001.71
2022-06-21 10:35:00,,0832.9,5.00,0.00,28.2,27.2,00.0,37.1,30.0,15.9,0000.0,0010.62,0003.74,0001.69
2022-06-21 10:36:00,,0832.9,5.02,0.00,28.2,27.2,00.0,37.1,30.0,15.9,0000.0,0010.46,0003.69,0001.69
2022-06-21 10:37:00,,0832.9,5.00,0.00,28.2,27.2,00.0,37.1,30.0,15.8,0000.0,0009.88,0003.69,0001.67
2022-06-21 10:38:00,,0832.9,5.00,0.00,28.2,27.2,00.0,37.1,30.1,15.8,0000.0,0010.33,0003.63,0001.65
2022-06-21 10:39:00,,0833.0,5.01,0.00,28.3,27.3,00.0,37.1,30.1,15.8,0000.0,0010.31,0003.66,0001.62
2022-06-21 10:40:00,,0833.0,4.98,0.00,28.3,27.3,00.0,37.1,30.1,15.7,0000.0,0011.39,0003.72,0001.63
2022-06-21 10:41:00,,0833.1,5.01,0.00,28.3,27.3,00.0,37.1,30.1,15.7,0000.0,0011.74,0003.77,0001.63
2022-06-21 10:42:00,,0833.1,5.00,0.00,28.3,27.4,00.0,37.1,30.2,15.6,0000.0,0011.67,0003.79,0001.62
2022-06-21 10:43:00,,0833.1,4.99,0.00,28.3,27.4,00.0,37.1,30.2,15.6,0000.0,0011.36,0003.70,0001.60
2022-06-21 10:44:00,,0833.0,5.01,0.00,28.4,27.4,00.0,37.2,30.2,15.5,0000.0,0011.14,0003.66,0001.58
2022-06-21 10:45:00,,0833.0,4.99,0.00,28.4,27.5,00.0,37.2,30.3,15.5,0000.0,0011.00,0003.70,0001.58
2022-06-21 10:46:00,,0833.0,5.00,0.00,28.4,27.5,00.0,37.2,30.3,15.4,0000.0,0011.07,0003.74,0001.58
2022-06-21 10:47:00,,0833.0,5.01,0.00,28.4,27.5,00.0,37.2,30.3,15.3,0000.0,0011.10,0003.75,0001.58
2022-06-21 10:48:00,,0833.1,5.00,0.00,28.4,27.6,00.0,37.2,30.3,15.3,0000.0,0011.09,0003.72,0001.57
2022-06-21 10:49:00,,0833.1,4.98,0.00,28.5,27.6,00.0,37.2,30.3,15.2,0000.0,0010.48,0003.73,0001.55
2022-06-21 10:50:00,,0833.1,5.01,0.00,28.5,27.6,00.0,37.2,30.4,15.2,0000.0,0010.18,0003.71,0001.55
2022-06-21 10:51:00,,0833.1,5.00,0.00,28.5,27.6,00.0,37.3,30.4,15.1,0000.0,0009.32,0003.65,0001.54
2022-06-21 10:52:00,,0833.1,4.99,0.00,28.5,27.7,00.0,37.3,30.4,15.1,0000.0,0008.94,0003.61,0001.54
2022-06-21 10:53:00,,0833.1,5.00,0.00,28.5,27.7,00.0,37.3,30.4,15.1,0000.0,0009.11,0003.59,0001.53
2022-06-21 10:54:00,,0833.1,5.00,0.00,28.6,27.7,00.0,37.3,30.4,15.0,0000.0,0009.36,0003.68,0001.54
2022-06-21 10:55:00,,0833.2,4.99,0.00,28.6,27.7,00.0,37.3,30.5,15.0,0000.0,0009.30,0003.68,0001.54
2022-06-21 10:56:00,,0833.2,5.01,0.00,28.6,27.7,00.0,37.3,30.5,15.0,0000.0,0009.28,0003.66,0001.53
2022-06-21 10:57:00,,0833.2,5.01,0.00,28.6,27.8,00.0,37.4,30.5,14.9,0000.0,0009.28,0003.64,0001.51
2022-06-21 10:58:00,,0833.1,5.00,0.00,28.6,27.8,00.0,37.4,30.5,14.9,0000.0,0009.34,0003.67,0001.50
2022-06-21 10:59:00,,0833.2,4.99,0.00,28.6,27.8,00.0,37.4,30.5,14.9,0000.0,0009.49,0003.74,0001.52
